SWA3023 KATL-KLAS

Flight info

Callsign SWA3023
Flight time N/A
Altitude 34000
Route NASSA2 YAALL J14 LIT MLC PNH GUP HAHAA RKSTR4
Aircraft B738/M-SDE2E3FGHIRWXY/LB1

Departure

Time N/A
Airport Hartsfield Jackson Atlanta International Airport (KATL)

Arrival

Time 2026-05-03 20:54
Airport Harry Reid International Airport (KLAS)
Time Latitude Longitude Altitude Speed Heading
2026-05-03 20:15 35.46948 -110.99025 35900 ft 361 kts 268°
2026-05-03 20:15 35.46873 -111.05201 35899 ft 362 kts 268°
2026-05-03 20:16 35.46796 -111.11373 35907 ft 362 kts 268°
2026-05-03 20:16 35.46715 -111.17567 35905 ft 363 kts 268°
2026-05-03 20:17 35.46631 -111.23724 35894 ft 363 kts 268°
2026-05-03 20:17 35.46543 -111.29925 35900 ft 363 kts 268°
2026-05-03 20:18 35.46452 -111.36108 35922 ft 362 kts 268°
2026-05-03 20:18 35.46359 -111.42295 35912 ft 363 kts 268°
2026-05-03 20:19 35.46263 -111.48477 35931 ft 363 kts 268°
2026-05-03 20:19 35.46163 -111.54664 35953 ft 363 kts 268°
2026-05-03 20:20 35.46060 -111.60859 35961 ft 363 kts 268°
2026-05-03 20:20 35.45955 -111.67019 35968 ft 363 kts 268°
2026-05-03 20:21 35.45846 -111.73197 35983 ft 363 kts 268°
2026-05-03 20:21 35.45734 -111.79400 35966 ft 363 kts 267°
2026-05-03 20:22 35.45624 -111.85585 35942 ft 363 kts 269°
2026-05-03 20:22 35.46202 -111.91741 35945 ft 364 kts 276°
2026-05-03 20:23 35.47028 -111.97879 35924 ft 364 kts 276°
2026-05-03 20:23 35.47835 -112.04013 35922 ft 364 kts 275°
2026-05-03 20:24 35.48617 -112.10157 35914 ft 364 kts 275°
2026-05-03 20:24 35.49385 -112.16292 35909 ft 363 kts 275°
2026-05-03 20:25 35.50147 -112.22422 35896 ft 363 kts 275°
2026-05-03 20:25 35.50897 -112.28495 35900 ft 361 kts 275°
2026-05-03 20:26 35.51648 -112.34595 35880 ft 361 kts 275°
2026-05-03 20:26 35.52393 -112.40677 35881 ft 360 kts 275°
2026-05-03 20:27 35.53135 -112.46754 35876 ft 359 kts 275°
2026-05-03 20:27 35.53859 -112.52688 35866 ft 345 kts 275°
2026-05-03 20:28 35.54561 -112.58501 35857 ft 343 kts 274°
2026-05-03 20:28 35.54911 -112.61408 35573 ft 343 kts 274°
2026-05-03 20:28 35.55258 -112.64287 35202 ft 338 kts 274°
2026-05-03 20:28 35.55598 -112.67114 34879 ft 333 kts 274°
2026-05-03 20:29 35.55934 -112.69915 34491 ft 330 kts 274°
2026-05-03 20:29 35.56261 -112.72647 34118 ft 326 kts 274°
2026-05-03 20:29 35.56588 -112.75393 33738 ft 324 kts 274°
2026-05-03 20:29 35.56912 -112.78115 33312 ft 321 kts 274°
2026-05-03 20:30 35.57234 -112.80815 32929 ft 318 kts 274°
2026-05-03 20:30 35.57551 -112.83487 32556 ft 314 kts 274°
2026-05-03 20:30 35.57865 -112.86134 32194 ft 311 kts 273°
2026-05-03 20:30 35.58176 -112.88760 31840 ft 308 kts 273°
2026-05-03 20:31 35.58482 -112.91351 31540 ft 304 kts 273°
2026-05-03 20:31 35.58784 -112.93913 31179 ft 302 kts 273°
2026-05-03 20:31 35.59083 -112.96460 30843 ft 302 kts 272°
2026-05-03 20:31 35.59382 -112.99025 30501 ft 307 kts 272°
2026-05-03 20:32 35.59689 -113.01692 30168 ft 322 kts 272°
2026-05-03 20:32 35.60004 -113.04408 29739 ft 325 kts 272°
2026-05-03 20:32 35.60324 -113.07138 29318 ft 322 kts 272°
2026-05-03 20:32 35.60642 -113.09843 28932 ft 318 kts 272°
2026-05-03 20:33 35.60956 -113.12520 28541 ft 315 kts 272°
2026-05-03 20:33 35.61264 -113.15162 28178 ft 311 kts 272°
2026-05-03 20:33 35.61568 -113.17784 27806 ft 308 kts 272°
2026-05-03 20:33 35.61869 -113.20397 27448 ft 312 kts 272°
2026-05-03 20:34 35.62177 -113.23128 27088 ft 333 kts 272°
2026-05-03 20:34 35.62504 -113.26032 26712 ft 355 kts 272°
2026-05-03 20:34 35.62854 -113.29104 26274 ft 365 kts 272°
2026-05-03 20:34 35.63206 -113.32150 25841 ft 365 kts 273°
2026-05-03 20:35 35.63564 -113.35231 25417 ft 363 kts 273°
2026-05-03 20:35 35.63917 -113.38298 25005 ft 362 kts 272°
2026-05-03 20:35 35.64268 -113.41363 24604 ft 361 kts 272°
2026-05-03 20:35 35.64616 -113.44418 24169 ft 363 kts 272°
2026-05-03 20:36 35.64962 -113.47489 23780 ft 362 kts 272°
2026-05-03 20:36 35.65324 -113.50564 23350 ft 365 kts 274°
2026-05-03 20:36 35.65788 -113.53641 22888 ft 367 kts 276°
2026-05-03 20:36 35.66300 -113.56698 22448 ft 363 kts 276°
2026-05-03 20:37 35.66819 -113.59718 22037 ft 359 kts 276°
2026-05-03 20:37 35.67328 -113.62696 21644 ft 351 kts 276°
2026-05-03 20:37 35.67817 -113.65599 21261 ft 342 kts 276°
2026-05-03 20:37 35.68288 -113.68428 20903 ft 334 kts 276°
2026-05-03 20:38 35.68745 -113.71201 20548 ft 326 kts 276°
2026-05-03 20:38 35.69190 -113.73913 20204 ft 321 kts 276°
2026-05-03 20:38 35.69626 -113.76592 19871 ft 319 kts 276°
2026-05-03 20:38 35.70054 -113.79233 19532 ft 317 kts 276°
2026-05-03 20:39 35.70484 -113.81894 19203 ft 316 kts 276°
2026-05-03 20:39 35.70912 -113.84539 18874 ft 316 kts 276°
2026-05-03 20:39 35.71340 -113.87199 18535 ft 319 kts 276°
2026-05-03 20:39 35.71774 -113.89892 18183 ft 323 kts 276°
2026-05-03 20:40 35.72214 -113.92628 17792 ft 327 kts 276°
2026-05-03 20:40 35.72657 -113.95384 17426 ft 328 kts 276°
2026-05-03 20:40 35.73098 -113.98109 17186 ft 323 kts 276°
2026-05-03 20:40 35.73534 -114.00816 16830 ft 322 kts 276°
2026-05-03 20:41 35.73966 -114.03513 16494 ft 320 kts 276°
2026-05-03 20:41 35.74396 -114.06196 16174 ft 318 kts 276°
2026-05-03 20:41 35.74822 -114.08864 15838 ft 317 kts 276°
2026-05-03 20:41 35.75246 -114.11519 15512 ft 315 kts 276°
2026-05-03 20:42 35.75668 -114.14158 15251 ft 312 kts 276°
2026-05-03 20:42 35.76355 -114.16686 14960 ft 316 kts 292°
2026-05-03 20:42 35.77399 -114.19026 14676 ft 315 kts 295°
2026-05-03 20:42 35.78479 -114.21377 14343 ft 315 kts 295°
2026-05-03 20:43 35.79554 -114.23734 14043 ft 317 kts 294°
2026-05-03 20:43 35.80627 -114.26125 13697 ft 321 kts 294°
2026-05-03 20:43 35.81704 -114.28552 13348 ft 324 kts 294°
2026-05-03 20:43 35.82787 -114.31004 12998 ft 327 kts 294°
2026-05-03 20:44 35.83888 -114.33477 12667 ft 332 kts 297°
2026-05-03 20:44 35.85208 -114.35848 12276 ft 339 kts 303°
2026-05-03 20:44 35.86660 -114.38130 11919 ft 335 kts 305°
2026-05-03 20:44 35.88106 -114.40349 11579 ft 328 kts 305°
2026-05-03 20:45 35.89508 -114.42522 11275 ft 319 kts 304°
2026-05-03 20:45 35.90860 -114.44649 10965 ft 310 kts 304°
2026-05-03 20:45 35.92172 -114.46739 10690 ft 307 kts 304°
2026-05-03 20:45 35.93510 -114.48891 10441 ft 330 kts 304°
2026-05-03 20:46 35.94948 -114.51209 10079 ft 345 kts 304°
2026-05-03 20:46 35.96412 -114.53562 9806 ft 345 kts 304°
2026-05-03 20:46 35.97861 -114.55908 9556 ft 343 kts 304°
2026-05-03 20:46 35.99302 -114.58247 9323 ft 342 kts 304°
2026-05-03 20:47 36.00738 -114.60581 9076 ft 341 kts 304°
2026-05-03 20:47 36.02169 -114.62908 8840 ft 339 kts 304°
2026-05-03 20:47 36.03579 -114.65200 8596 ft 337 kts 304°
2026-05-03 20:47 36.04890 -114.67579 8397 ft 333 kts 298°
2026-05-03 20:48 36.06076 -114.70034 8165 ft 332 kts 297°
2026-05-03 20:48 36.07046 -114.72582 7928 ft 322 kts 281°
2026-05-03 20:48 36.07403 -114.75210 7756 ft 301 kts 271°
2026-05-03 20:48 36.07479 -114.77678 7407 ft 291 kts 265°
2026-05-03 20:49 36.07455 -114.80143 7071 ft 284 kts 264°
2026-05-03 20:49 36.07419 -114.82621 6412 ft 292 kts 264°
2026-05-03 20:49 36.07329 -114.85113 5753 ft 293 kts 263°
2026-05-03 20:49 36.07234 -114.87632 4975 ft 289 kts 265°
2026-05-03 20:50 36.07247 -114.90069 4316 ft 278 kts 268°
2026-05-03 20:50 36.07339 -114.92371 3999 ft 253 kts 268°
2026-05-03 20:50 36.07390 -114.94427 3898 ft 227 kts 266°
2026-05-03 20:50 36.07392 -114.96273 3772 ft 202 kts 264°
2026-05-03 20:51 36.07388 -114.97920 3782 ft 185 kts 263°
2026-05-03 20:51 36.07378 -114.99526 3808 ft 192 kts 265°
2026-05-03 20:51 36.07376 -115.01188 3820 ft 192 kts 264°
2026-05-03 20:51 36.07376 -115.02821 3778 ft 184 kts 264°
2026-05-03 20:52 36.07375 -115.04348 3528 ft 174 kts 263°
2026-05-03 20:52 36.07373 -115.05807 3382 ft 165 kts 263°
2026-05-03 20:52 36.07369 -115.07221 3092 ft 159 kts 265°
2026-05-03 20:52 36.07374 -115.08585 2945 ft 162 kts 267°
2026-05-03 20:53 36.07355 -115.09978 2726 ft 161 kts 268°
2026-05-03 20:53 36.07340 -115.11355 2445 ft 158 kts 272°
2026-05-03 20:53 36.07356 -115.12689 2219 ft 152 kts 275°
2026-05-03 20:53 36.07372 -115.13899 2189 ft 120 kts 267°
2026-05-03 20:54 36.07366 -115.14461 2190 ft 78 kts 271°
2026-05-03 20:54 36.07487 -115.15080 2187 ft 13 kts 307°
2026-05-03 20:54 36.07539 -115.15137 2191 ft 0 kts 329°
2026-05-03 20:55 36.07541 -115.15138 2192 ft 2 kts 334°
2026-05-03 20:55 36.07577 -115.15157 2188 ft 9 kts 338°
2026-05-03 20:55 36.07651 -115.15203 2189 ft 15 kts 334°
2026-05-03 20:56 36.07737 -115.15253 2191 ft 10 kts 335°
2026-05-03 20:56 36.07797 -115.15286 2190 ft 9 kts 335°
2026-05-03 20:56 36.07854 -115.15320 2188 ft 9 kts 334°
2026-05-03 20:56 36.07910 -115.15353 2188 ft 9 kts 336°
2026-05-03 20:57 36.07970 -115.15387 2187 ft 10 kts 335°
2026-05-03 20:57 36.08014 -115.15412 2187 ft 11 kts 336°
2026-05-03 20:57 36.08110 -115.15447 2187 ft 10 kts 34°
2026-05-03 20:57 36.08127 -115.15392 2188 ft 11 kts 87°
2026-05-03 20:58 36.08107 -115.15294 2188 ft 13 kts 104°
2026-05-03 20:58 36.08089 -115.15177 2187 ft 14 kts 87°
2026-05-03 20:58 36.08142 -115.15073 2188 ft 14 kts 47°
2026-05-03 20:58 36.08176 -115.15029 2187 ft 0 kts 45°
2026-05-03 20:59 36.08177 -115.15029 2187 ft 1 kts 47°
2026-05-03 20:59 36.08159 -115.14986 2188 ft 13 kts 122°
2026-05-03 20:59 36.08062 -115.14901 2189 ft 20 kts 157°
2026-05-03 20:59 36.07937 -115.14832 2189 ft 19 kts 156°
2026-05-03 21:00 36.07855 -115.14730 2187 ft 19 kts 91°
2026-05-03 21:00 36.07846 -115.14625 2187 ft 18 kts 97°
2026-05-03 21:00 36.07888 -115.14482 2187 ft 8 kts 359°
2026-05-03 21:00 36.07950 -115.14496 2188 ft 3 kts 324°
2026-05-03 21:01 36.07969 -115.14496 2187 ft 3 kts 11°
2026-05-03 21:01 36.08000 -115.14487 2188 ft 7 kts 11°
2026-05-03 21:01 36.08047 -115.14491 2187 ft 4 kts 315°
2026-05-03 21:01 36.08050 -115.14524 2188 ft 4 kts 270°
2026-05-03 21:02 36.08050 -115.14540 2189 ft 1 kts 270°
2026-05-03 21:02 36.08050 -115.14551 2188 ft 1 kts 270°
2026-05-03 21:02 36.08050 -115.14560 2189 ft 0 kts 270°